Simultaneous Nadir Overpasses (SNOs) Predictions

Prediction of SNOs between AQUA and GOES-15 Satellite Orbit:

Table of predicted SNOs for the next 14.0 days since TLE Epoch: 4/14/2023
Index Date Time (AQUA) AQUA Lat,Lon GOES-15 Lat,Lon Distance(km) Time Diff (sec)
1 04/15/2023 10:32:48 -0.29,-131.48 0.16,-133.67 249.13 80
2 04/15/2023 22:53:48 -0.69,-136.58 -0.14,-133.90 304.83 80
3 04/17/2023 22:40:02 0.19,-133.25 -0.15,-134.89 185.89 80
4 04/18/2023 11:00:53 0.83,-138.31 0.14,-135.17 357.10 80
5 04/20/2023 10:47:07 -0.11,-134.98 0.14,-136.16 133.39 80
6 04/20/2023 23:08:07 -0.89,-140.08 -0.13,-136.38 420.75 80
7 04/22/2023 22:54:19 -0.01,-136.74 -0.13,-137.35 69.44 80
8 04/23/2023 11:15:10 1.02,-141.80 0.12,-137.64 473.71 80
9 04/25/2023 11:01:22 0.08,-138.47 0.13,-138.61 16.16 80
10 04/27/2023 23:08:31 -0.22,-140.21 -0.12,-139.78 48.63 80
